Regional Weather Roundup
Issued by NWS

Home | Current Version | Previous Version | Text Only | Print | Product List | Glossary On
Versions: 1 2 3 4 5 6 7 8 9 10 11 12 13 14 15 16 17 18 19 20 21 22 23 24 25 26 27 28 29 30 31 32 33 34 35 36 37 38 39 40 41 42 43 44 45 46 47 48 49 50
000
ASUS46 KPQR 260610
RWROR

OREGON REGIONAL WEATHER ROUNDUP
NATIONAL WEATHER SERVICE PORTLAND OR
1100 PM PDT WED APR 25 2018

NOTE: "FAIR" INDICATES FEW OR NO CLOUDS BELOW 12,000 FEET WITH
NO SIGNIFICANT WEATHER AND/OR OBSTRUCTIONS TO VISIBILITY.

ORZ001>013-260700-
NORTHWEST OREGON


CITY           SKY/WX    TMP DP  RH WIND       PRES   REMARKS
ASTORIA        CLOUDY    50  49  96 S7        30.02S FOG
6HR MIN TEMP:  50; 6HR MAX TEMP:  57;

TILLAMOOK      CLOUDY    50  50 100 CALM      30.05S FOG
NEWPORT        CLOUDY    48  46  93 CALM      30.08S FOG
PORTLAND       CLEAR     68  44  42 CALM      29.99R
6HR MIN TEMP:  65; 6HR MAX TEMP:  84;

VANCOUVER WA   CLEAR     66  46  48 CALM      29.98R
6HR MIN TEMP:  65; 6HR MAX TEMP:  84;

SCAPPOOSE      CLEAR     67  39  35 N5        29.98S
6HR MIN TEMP:  67; 6HR MAX TEMP:  83;

HILLSBORO      CLEAR     61  47  59 NW3       29.98S
6HR MIN TEMP:  60; 6HR MAX TEMP:  85;

AURORA         CLEAR     65  44  46 N8        29.97F
6HR MIN TEMP:  63; 6HR MAX TEMP:  84;

MCMINNVILLE    CLEAR     58  50  75 W6        29.97S
6HR MIN TEMP:  55; 6HR MAX TEMP:  84;

SALEM          CLEAR     62  47  57 CALM      29.96R
6HR MIN TEMP:  60; 6HR MAX TEMP:  82;

CORVALLIS      CLEAR     55  49  80 W14       29.97S
EUGENE         CLEAR     56  53  90 SW8       29.97S
6HR MIN TEMP:  56; 6HR MAX TEMP:  78;

$$

ORZ021-028-260700-
SOUTHWEST OREGON


CITY           SKY/WX    TMP DP  RH WIND       PRES   REMARKS
NORTH BEND     CLOUDY    50  48  93 VRB5      30.08S
6HR MIN TEMP:  50; 6HR MAX TEMP:  53;

BROOKINGS      CLOUDY    49  48  97 SE5       30.08S FOG
ROSEBURG       CLEAR     65  50  58 CALM      29.97S
6HR MIN TEMP:  65; 6HR MAX TEMP:  90;

SEXTON SUMMIT  CLEAR     59  43  55 N8        30.07S
6HR MIN TEMP:  59; 6HR MAX TEMP:  77;

GRANTS PASS    FAIR      64  48  55 CALM      30.00R
MEDFORD        CLEAR     70  41  34 S5        29.95S
6HR MIN TEMP:  69; 6HR MAX TEMP:  89;

$$

ORZ014>016-041-260700-
COLUMBIA GORGE


CITY           SKY/WX    TMP DP  RH WIND       PRES   REMARKS
TROUTDALE      CLEAR     68  46  45 E10       29.98S
6HR MIN TEMP:  63; 6HR MAX TEMP:  84;

HOOD RIVER     CLEAR     55  45  67 CALM      30.08S
THE DALLES     CLEAR     58  43  57 E7        30.07R
6HR MIN TEMP:  58; 6HR MAX TEMP:  84;

$$

ORZ029>031-041-044-049-050-061>064-502-503-505>511-260700-
EASTERN OREGON


CITY           SKY/WX    TMP DP  RH WIND       PRES   REMARKS
MADRAS         CLEAR     55  37  50 NW8       30.13R
REDMOND        CLEAR     61  39  44 W7        30.11R
6HR MIN TEMP:  61; 6HR MAX TEMP:  83;

BEND           CLEAR     59  37  44 NW8       30.14R
PRINEVILLE     CLEAR     52  36  54 SW5       30.11S
KLAMATH FALLS  CLEAR     51  35  54 CALM      30.08S
6HR MIN TEMP:  48; 6HR MAX TEMP:  80;

LAKEVIEW       CLEAR     44  35  70 N8        30.13S
HERMISTON      CLEAR     51  45  79 CALM      30.07S
6HR MIN TEMP:  50; 6HR MAX TEMP:  79;

PENDLETON      CLEAR     51  43  74 E9        30.09S
6HR MIN TEMP:  51; 6HR MAX TEMP:  74;

JOHN DAY       CLEAR     59  32  36 SE5       30.14S
MEACHAM        CLEAR     38  33  82 CALM      30.17S
6HR MIN TEMP:  38; 6HR MAX TEMP:  66;

LA GRANDE      CLEAR     51  38  60 CALM      30.14S
6HR MIN TEMP:  51; 6HR MAX TEMP:  76;

BAKER CITY     CLEAR     49  36  61 SE3       30.15R
6HR MIN TEMP:  46; 6HR MAX TEMP:  78;

BURNS          CLEAR     45  30  55 NE8       30.14S
6HR MIN TEMP:  44; 6HR MAX TEMP:  76;

ROME             N/A     51  50  97 W6        30.12R
6HR MIN TEMP:  48; 6HR MAX TEMP:  80;

ONTARIO        CLEAR     53  36  52 CALM      30.11R
6HR MIN TEMP:  53; 6HR MAX TEMP:  78;

$$



USA.gov is the U.S. government's official web portal to all federal, state and local government web resources and services.